Погода в Ллангевни

Великобритания     53°15′21″N   4°18′36″W
темп.,
°C
ветер,
м/с
пор.,
м/с
влажн.,
%
обл.,
%
осадки,
мм/ч
давл.,
гПа
погр.,
м
21 апреля, ср
ср2101:00+6всв228981 0.0 102033
04:00+6всв249499 0.0 102075
07:00+7всв5108967 0.0 1021304
10:00+10в787538 0.0 1022724
13:00+12в56636 0.0 10231008
16:00+12в446242 0.0 10231252
19:00+10всв357055 0.1 1024269
22:00+7св347513 0.0 102554
22 апреля, чт
чт2201:00+5юв32795 0.0 102640
04:00+3в227868 0.0 102715
07:00+4в227314 0.0 102723
10:00+10в224610 0.0 1028481
13:00+12ссв22400 0.0 1028969
16:00+12ссв33480 0.0 1028578
19:00+9ссв34660 0.0 1028216
22:00+6вюв11760 0.0 102912
23 апреля, пт
пт2301:00+5ююв11680 0.0 102911
04:00+5вюв11700 0.0 102912
07:00+6в11700 0.0 102915
10:00+13ююв114639 0.0 1029495
13:00+15сз124296 0.0 10291300
16:00+16ю234242 0.0 10281536
19:00+13ю1163100 0.0 102828
22:00+8юв2268100 0.0 102914
24 апреля, сб
сб2401:00+8вюв1161100 0.0 102913
04:00+7юв1262100 0.0 102917
07:00+8вюв1160100 0.0 102920
10:00+12в2249100 0.0 1029415
13:00+15вюв244295 0.0 10291159
16:00+15вюв344584 0.0 10281204
19:00+13в356526 0.0 1028155
22:00+8в22800 0.0 103015
25 апреля, вс
вс2501:00+7в22860 0.0 103013
04:00+6вюв22884 0.0 102918
07:00+6в22835 0.0 102932
10:00+12в46585 0.0 1029610
13:00+15в34495 0.0 10281253
16:00+15всв45535 0.0 10261016
19:00+11св587414 0.0 1026304
22:00+8в228297 0.0 102617